sat.trackr.live / text

‹ back to catalog

STARLINK-35951

NORAD 66619 · 2025-271C

PAYLOAD ACTIVE UNKNOWN

§ Identity

Operator
Country
US
Launch date
2025-11-23
Launch site
AFWTR
Launch vehicle
Mass (kg)
RCS (m²)

Purposes: comms

External: N2YO · Heavens-Above · Gunter

§ Orbital elements

Epoch: 2026-05-25T00:56:24.162720Z

Period
94.11 min
Inclination
53.1581°
Eccentricity
0.0001327
Mean motion
15.30191964 rev/d
Perigee alt
474.3 km
Apogee alt
476.1 km
Semi-major
6,853.4 km
B*
1.2223e-4
RAAN
145.4724°
Arg perigee
87.5205°
Mean anomaly
272.5947°
Rev number
2,925

§ Raw data

STARLINK-359511 66619U 25271C   26145.03916855  .00003262  00000+0  12223-3 0  99952 66619  53.1581 145.4724 0001327  87.5205 272.5947 15.30191964 29253

JSON: /api/v1/satellites/66619 · /tle

For live sub-satellite position, see the globe view (requires WebGL).

§ Visibility from observer

Set your observer location to see the next 7 days of passes ≥ 10°. The values pass through the URL so the page stays shareable.

No JS? Fill the form by hand. The geolocation button needs JavaScript.